Weather History for Charlevoix, MI

Change the Weather History Date:

Monday, March 19, 2012

  Actual Average Record
Temperature  
Mean Temperature 65 °F -  
Max Temperature 80 °F 40 °F 80 °F (2012)
Min Temperature 50 °F 21 °F 19 °F (2001)
Growing Degree Days 15 (Base 50)    
Moisture  
Dew Point 53 °F    
Average Humidity 72    
Maximum Humidity 89    
Minimum Humidity 42    
Precipitation  
Precipitation 0.00 in - - ()
Sea Level Pressure  
Sea Level Pressure 30.01 in    
Wind  
Wind Speed 5 mph (SSE)    
Max Wind Speed 14 mph    
Max Gust Speed 21 mph    
Visibility 10 miles    
Events      
Averages and records for this station are not official NWS values.
T = Trace of Precipitation, MM = Missing Value Source: NWS Daily Summary

Daily Weather History Graph

Daily Weather History Graph

Search for Another Location

Airport:

Trip Planner

Search our weather history database for the weather conditions in past years. The results will help you decide how hot, cold, wet, or windy it might be!

Date:

Astronomy

Mar. 19, 2012 Rise Set
Actual Time 7:45 AM EDT 7:52 PM EDT
Civil Twilight 7:15 AM EDT 8:22 PM EDT
Nautical Twilight 6:41 AM EDT 8:57 PM EDT
Astronomical Twilight 6:05 AM EDT 9:32 PM EDT
Moon 6:03 AM EDT (3/19) 5:14 PM EDT (3/19)
Length of Visible Light 13h 06m
Length of Day
12h 07m
Waning Crescent, 8% of the Moon is Illuminated
Mar 19
Waning Crescent
Mar 22
New
Mar 30
First Quarter
Apr 6
Full
Apr 13
Last Quarter

Hourly Weather History & Observations

Time (EDT) Temp. Heat Index Dew Point Humidity Pressure Visibility Wind Dir Wind Speed Gust Speed Precip Events Conditions
12:14 AM 56.3 °F - 49.1 °F 77% 30.01 in 10.0 mi Calm Calm - N/A   Clear
12:55 AM 51.3 °F - 47.5 °F 87% 30.02 in 10.0 mi East 4.6 mph - N/A   Clear
1:14 AM 50.9 °F - 47.5 °F 88% 30.02 in 10.0 mi ESE 4.6 mph - N/A   Clear
1:35 AM 51.1 °F - 47.5 °F 87% 30.01 in 10.0 mi ESE 5.8 mph - N/A   Clear
1:55 AM 53.8 °F - 48.6 °F 82% 30.01 in 10.0 mi ESE 4.6 mph - N/A   Clear
2:14 AM 52.0 °F - 48.2 °F 87% 30.01 in 10.0 mi ESE 5.8 mph - N/A   Clear
2:35 AM 50.9 °F - 47.5 °F 88% 30.01 in 10.0 mi ESE 4.6 mph - N/A   Clear
2:54 AM 52.0 °F - 47.8 °F 86% 30.01 in 10.0 mi ESE 5.8 mph - N/A   Clear
3:14 AM 53.6 °F - 48.9 °F 84% 30.01 in 10.0 mi ESE 4.6 mph - N/A   Clear
3:35 AM 55.2 °F - 49.8 °F 82% 30.01 in 10.0 mi ESE 4.6 mph - N/A   Mostly Cloudy
4:14 AM 54.0 °F - 49.8 °F 86% 30.00 in 10.0 mi ESE 4.6 mph - N/A   Scattered Clouds
4:35 AM 55.9 °F - 51.1 °F 84% 30.00 in 10.0 mi ESE 4.6 mph - N/A   Mostly Cloudy
4:54 AM 56.3 °F - 51.3 °F 83% 30.00 in 10.0 mi Calm Calm - N/A   Mostly Cloudy
5:15 AM 57.2 °F - 51.8 °F 82% 30.00 in 10.0 mi East 3.5 mph - N/A   Scattered Clouds
5:35 AM 55.9 °F - 51.1 °F 84% 30.00 in 10.0 mi Calm Calm - N/A   Clear
5:54 AM 53.4 °F - 49.8 °F 88% 30.01 in 10.0 mi ESE 4.6 mph - N/A   Clear
6:15 AM 55.0 °F - 51.4 °F 88% 30.01 in 10.0 mi SE 4.6 mph - N/A   Clear
6:35 AM 55.0 °F - 51.3 °F 87% 30.01 in 10.0 mi ESE 3.5 mph - N/A   Clear
6:54 AM 54.3 °F - 51.1 °F 89% 30.01 in 10.0 mi ESE 3.5 mph - N/A   Scattered Clouds
7:15 AM 54.9 °F - 51.3 °F 88% 30.01 in 10.0 mi Calm Calm - N/A   Scattered Clouds
7:34 AM 55.6 °F - 51.1 °F 85% 30.02 in 10.0 mi Calm Calm - N/A   Clear
8:14 AM 55.6 °F - 51.8 °F 87% 30.03 in 10.0 mi Calm Calm - N/A   Clear
8:34 AM 55.4 °F - 51.6 °F 87% 30.03 in 10.0 mi Calm Calm - N/A   Clear
8:55 AM 58.1 °F - 52.7 °F 82% 30.03 in 10.0 mi ESE 5.8 mph - N/A   Clear
9:14 AM 59.5 °F - 53.4 °F 80% 30.03 in 10.0 mi ESE 3.5 mph - N/A   Clear
9:34 AM 62.2 °F - 54.1 °F 75% 30.03 in 10.0 mi ESE 4.6 mph - N/A   Clear
9:55 AM 65.3 °F - 55.2 °F 70% 30.03 in 10.0 mi SE 3.5 mph - N/A   Clear
10:14 AM 66.0 °F - 55.6 °F 69% 30.03 in 10.0 mi SE 6.9 mph - N/A   Clear
10:34 AM 69.3 °F - 56.8 °F 65% 30.03 in 10.0 mi SSE 6.9 mph - N/A   Clear
10:55 AM 70.7 °F - 57.2 °F 62% 30.02 in 10.0 mi SSE 8.1 mph - N/A   Clear
11:14 AM 71.6 °F - 57.4 °F 61% 30.02 in 10.0 mi SE 5.8 mph - N/A   Clear
11:35 AM 73.8 °F - 58.5 °F 59% 30.02 in 10.0 mi South 8.1 mph - N/A   Clear
11:55 AM 74.8 °F - 58.6 °F 57% 30.02 in 10.0 mi South 9.2 mph - N/A   Clear
12:14 PM 75.4 °F - 58.8 °F 56% 30.02 in 10.0 mi SSE 9.2 mph 16.1 mph N/A   Clear
12:35 PM 75.9 °F - 58.5 °F 55% 30.02 in 10.0 mi South 8.1 mph 16.1 mph N/A   Clear
12:55 PM 77.4 °F - 58.5 °F 52% 30.01 in 10.0 mi SE 12.7 mph 17.3 mph N/A   Scattered Clouds
1:14 PM 78.3 °F - 57.6 °F 49% 30.01 in 10.0 mi SSE 11.5 mph 19.6 mph N/A   Scattered Clouds
1:35 PM 77.4 °F - 57.2 °F 50% 30.01 in 10.0 mi SSE 6.9 mph 17.3 mph N/A   Scattered Clouds
1:54 PM 78.1 °F - 56.8 °F 48% 30.01 in 10.0 mi South 9.2 mph 18.4 mph N/A   Scattered Clouds
2:15 PM 77.2 °F - 56.7 °F 49% 30.01 in 10.0 mi SSW 6.9 mph 11.5 mph N/A   Mostly Cloudy
2:34 PM 79.7 °F - 56.3 °F 44% 30.00 in 10.0 mi South 9.2 mph 16.1 mph N/A   Scattered Clouds
2:54 PM 80.1 °F 80.1 °F 55.2 °F 42% 30.00 in 10.0 mi SSW 12.7 mph 18.4 mph N/A   Scattered Clouds
3:15 PM 79.2 °F - 55.6 °F 44% 29.99 in 10.0 mi South 13.8 mph 20.7 mph N/A   Scattered Clouds
3:34 PM 79.5 °F - 55.8 °F 44% 29.98 in 10.0 mi SSW 9.2 mph - N/A   Mostly Cloudy
3:54 PM 76.5 °F - 53.6 °F 45% 29.99 in 10.0 mi WNW 9.2 mph 19.6 mph N/A   Mostly Cloudy
4:15 PM 64.9 °F - 54.1 °F 68% 29.99 in 10.0 mi WNW 8.1 mph - N/A   Mostly Cloudy
4:34 PM 67.6 °F - 55.6 °F 65% 29.99 in 10.0 mi West 6.9 mph - N/A   Scattered Clouds
4:55 PM 65.8 °F - 55.6 °F 69% 29.98 in 10.0 mi West 9.2 mph - N/A   Scattered Clouds
5:14 PM 65.8 °F - 55.8 °F 70% 29.98 in 10.0 mi WNW 6.9 mph - N/A   Scattered Clouds
5:34 PM 60.6 °F - 51.6 °F 72% 29.98 in 10.0 mi NW 3.5 mph - N/A   Scattered Clouds
5:55 PM 61.2 °F - 54.1 °F 78% 29.98 in 10.0 mi West 5.8 mph - N/A   Scattered Clouds
6:14 PM 61.7 °F - 54.0 °F 76% 29.98 in 10.0 mi West 8.1 mph - N/A   Mostly Cloudy
6:35 PM 59.9 °F - 53.6 °F 80% 29.98 in 10.0 mi WNW 3.5 mph - N/A   Scattered Clouds
6:55 PM 59.0 °F - 53.4 °F 82% 29.98 in 10.0 mi West 4.6 mph - N/A   Scattered Clouds
7:35 PM 59.0 °F - 53.6 °F 82% 29.97 in 10.0 mi Calm Calm - N/A   Scattered Clouds
7:55 PM 58.6 °F - 53.6 °F 83% 29.97 in 10.0 mi Calm Calm - N/A   Clear
8:14 PM 58.1 °F - 53.4 °F 84% 29.97 in 10.0 mi Calm Calm - N/A   Clear
8:35 PM 58.1 °F - 53.6 °F 85% 29.97 in 10.0 mi Calm Calm - N/A   Clear
8:55 PM 57.7 °F - 53.2 °F 85% 29.97 in 10.0 mi Calm Calm - N/A   Clear
9:14 PM 57.7 °F - 53.6 °F 86% 29.98 in 10.0 mi Calm Calm - N/A   Clear
9:35 PM 56.7 °F - 52.2 °F 85% 29.98 in 10.0 mi Calm Calm - N/A   Clear
9:55 PM 55.4 °F - 52.0 °F 88% 29.99 in 10.0 mi Calm Calm - N/A   Clear
10:14 PM 55.2 °F - 52.2 °F 89% 29.99 in 10.0 mi Calm Calm - N/A   Clear
10:35 PM 55.9 °F - 52.2 °F 87% 29.98 in 10.0 mi Calm Calm - N/A   Clear
10:55 PM 55.8 °F - 51.8 °F 87% 29.98 in 10.0 mi ESE 3.5 mph - N/A   Clear
11:14 PM 56.1 °F - 52.0 °F 86% 29.99 in 10.0 mi ESE 3.5 mph - N/A   Clear
11:35 PM 55.0 °F - 51.4 °F 88% 29.99 in 10.0 mi ESE 4.6 mph - N/A   Scattered Clouds
11:54 PM 54.9 °F - 51.8 °F 89% 29.99 in 10.0 mi SE 3.5 mph - N/A   Scattered Clouds